Theta_e
312 311 312 311 315 324 325 322 320 322 321 315 316 318 320 323 324 323 323 322 324 331 334 333 332 333 336 338 339 344 344 347 348 343 345 352 352 352 354 352 352 350 348 347 342 337 337 336 336 336 335 333 332 331 330 331 333 335 336 335 335 333 329 323 319 312 309 310 310 311 311 314 318 321 323 326 329 330 331 334 337 338 338 339 340 340 340 339 338 339 338 338 338 337 336 336 335
315 313 312 312 319 324 324 325 318 318 317 313 317 320 321 324 323 322 323 323 326 334 336 336 335 336 339 340 339 343 346 349 352 352 352 352 352 353 354 352 351 349 348 346 343 338 337 337 336 336 335 333 330 329 328 329 331 334 335 334 334 331 326 320 314 310 310 310 310 311 312 314 317 321 324 328 330 332 335 339 339 339 339 340 340 340 340 339 339 338 338 338 338 337 337 336 336
317 316 316 317 322 323 322 323 317 314 313 312 317 322 324 323 322 322 324 324 327 332 334 337 337 338 338 337 338 342 346 349 351 352 352 352 353 353 353 352 350 349 348 346 344 340 338 336 336 336 334 331 328 326 325 327 329 332 333 333 331 326 321 315 310 310 310 310 310 311 312 314 318 322 326 330 333 336 339 339 340 340 340 340 340 340 340 339 339 338 337 337 337 337 336 335 334
315 317 320 321 321 321 320 320 318 315 313 313 315 322 324 321 322 323 325 325 328 331 334 337 336 341 342 339 340 343 345 348 350 350 352 352 353 353 353 351 350 349 348 346 344 342 339 336 337 336 333 329 326 324 323 325 328 330 331 330 326 321 316 311 310 310 310 310 311 311 312 315 319 323 329 334 335 337 339 339 340 340 340 340 340 340 339 338 338 337 336 335 334 334 333 331 327
314 318 320 322 322 322 321 320 319 316 314 315 316 321 323 321 323 323 325 324 327 332 335 337 336 340 344 344 343 343 344 347 350 350 351 352 353 354 353 351 350 349 348 346 344 344 340 337 337 335 332 327 323 321 321 323 325 327 326 325 321 316 312 310 310 310 310 310 311 311 313 316 318 323 329 335 336 337 338 339 340 340 340 339 339 339 338 336 335 334 333 333 333 332 331 324 316
316 318 318 320 322 322 322 318 317 317 318 320 319 321 322 322 323 323 325 324 328 333 335 338 336 337 344 348 348 347 348 348 348 349 351 352 353 353 352 350 349 348 347 346 345 345 339 336 337 334 330 325 321 320 320 321 322 322 322 320 317 314 310 310 310 310 310 310 311 311 313 316 318 320 326 333 336 336 337 339 339 340 340 339 338 337 336 334 333 332 330 330 331 331 325 316 310
317 319 319 318 320 320 319 316 316 317 320 322 321 321 322 322 323 323 324 324 328 332 334 337 337 338 342 347 349 349 351 349 347 349 350 352 353 352 352 350 349 348 347 346 346 345 338 336 337 333 328 323 321 320 320 320 320 320 318 317 315 313 310 310 310 310 310 310 312 312 314 316 317 318 323 331 333 335 336 337 338 339 339 337 337 336 335 334 332 330 325 323 323 321 316 311 310
317 319 322 320 319 320 317 316 317 318 321 322 322 322 322 323 323 323 323 325 327 331 332 332 335 337 338 344 348 350 350 350 349 349 351 352 353 352 351 350 350 348 348 347 347 344 337 336 336 331 327 322 320 320 320 320 320 318 316 315 315 314 311 310 310 310 310 311 311 312 314 314 316 316 320 327 330 333 335 335 336 337 337 337 336 335 334 332 330 326 321 317 314 312 310 310 309
316 317 322 321 318 319 317 317 318 319 322 322 322 321 321 323 323 323 324 324 326 328 330 329 331 336 339 345 350 350 350 350 350 350 352 352 352 352 351 351 350 348 348 347 347 344 337 337 335 329 326 321 320 320 320 320 319 318 316 315 315 315 312 310 310 310 310 311 312 312 314 314 315 316 317 322 326 330 331 331 333 335 336 336 335 332 330 328 326 322 318 314 311 310 309 309 309
317 317 319 320 317 316 315 318 318 320 321 322 322 321 321 322 323 324 323 324 325 325 329 331 330 336 340 343 349 351 351 351 351 352 352 352 352 351 351 351 349 349 348 347 347 343 337 337 334 329 325 321 320 320 320 319 319 319 317 316 316 315 313 311 310 310 310 311 312 312 313 313 315 316 317 319 322 327 327 328 330 334 335 332 331 329 326 324 322 319 315 313 311 309 309 310 309
318 317 318 319 317 313 313 317 318 320 321 321 321 321 321 322 323 324 324 325 324 325 331 332 330 338 341 343 350 351 351 351 351 352 352 351 351 352 352 351 349 349 349 349 348 342 337 337 333 329 325 321 320 320 319 317 317 317 316 316 315 316 314 312 311 310 310 311 311 312 313 313 314 316 317 318 321 324 325 326 328 332 332 329 328 325 322 321 319 316 314 312 310 310 310 310 310
318 319 318 317 316 315 316 317 318 321 320 320 320 321 322 321 322 322 323 324 324 327 331 331 331 338 340 343 350 351 351 352 352 352 352 351 351 352 352 350 350 349 349 350 347 341 337 337 334 329 325 321 320 319 317 316 315 315 314 315 315 316 314 313 311 310 311 311 311 312 313 312 313 315 316 317 319 321 323 323 325 328 328 327 326 323 322 321 319 316 314 312 309 309 310 310 311
317 319 319 316 316 317 317 317 319 320 319 320 321 322 322 321 323 322 323 324 324 328 329 331 333 337 340 344 350 351 352 352 352 352 352 352 351 352 351 350 350 349 349 348 346 341 338 337 335 331 324 321 321 318 317 318 318 318 316 316 316 315 314 314 312 311 311 311 311 312 313 312 312 314 315 315 318 319 321 322 324 327 327 326 325 323 323 322 320 317 314 311 309 309 309 310 310
317 319 320 318 318 318 318 318 318 318 317 321 321 321 321 322 323 323 324 323 324 328 330 333 335 338 342 347 350 351 352 352 352 352 352 352 351 351 350 350 350 349 349 347 346 343 340 338 337 333 327 322 320 318 320 323 324 324 323 321 320 318 317 314 313 312 311 311 311 312 312 312 312 312 313 314 316 318 320 321 323 325 325 325 324 323 323 323 322 318 315 312 309 309 309 309 309
317 318 319 319 318 318 318 318 318 317 318 321 321 321 322 324 325 323 324 324 329 334 334 335 336 338 339 342 346 349 352 351 352 352 352 352 351 351 350 350 350 349 348 347 346 345 342 341 341 336 331 326 321 319 322 327 328 330 329 328 326 324 322 320 318 315 312 312 311 311 312 311 312 312 312 313 315 316 318 321 322 322 324 325 324 324 323 323 323 320 318 314 310 310 309 309 310
318 319 319 318 316 317 318 319 318 317 319 321 321 321 323 327 327 325 327 331 336 335 334 335 337 338 336 337 342 348 351 351 352 352 352 351 351 351 351 350 350 349 348 348 347 346 345 344 343 338 336 332 324 320 323 329 330 331 332 332 331 329 328 326 324 321 317 314 312 311 311 311 312 312 312 313 315 316 317 319 321 321 322 324 324 325 325 324 324 322 320 317 313 311 311 311 311
318 319 319 316 316 316 318 319 318 318 320 321 321 322 324 328 327 330 334 335 336 335 336 338 339 341 339 341 345 348 351 351 352 352 352 351 351 351 351 350 349 349 348 348 347 346 346 344 343 341 340 336 331 327 327 330 331 331 332 332 333 332 331 330 328 327 325 321 318 314 312 314 318 318 314 312 315 316 315 316 320 321 320 322 323 324 326 326 325 324 322 319 316 313 312 312 313
317 318 318 316 317 318 319 319 319 320 321 321 321 322 324 327 328 330 333 334 335 335 340 342 342 345 344 345 349 350 350 351 351 351 351 351 350 350 351 350 349 348 348 348 347 346 345 344 343 342 342 338 336 335 333 333 331 331 333 333 334 333 332 332 331 331 329 328 324 321 320 324 329 328 320 317 316 315 315 315 319 322 320 320 321 322 324 326 327 325 323 321 318 315 313 313 314
318 318 317 317 319 320 320 320 320 322 320 320 321 321 323 328 330 330 330 335 337 335 338 341 343 346 346 347 350 351 350 351 351 351 351 350 350 349 350 350 349 348 347 347 347 346 345 343 343 342 343 341 340 339 338 337 332 332 335 334 334 334 333 332 332 333 332 331 329 328 330 331 335 334 330 328 321 314 315 315 317 321 321 320 319 320 322 324 327 327 325 324 321 318 317 317 315
318 318 317 318 320 320 320 320 320 321 320 321 321 320 322 329 331 329 331 334 335 335 336 339 343 346 348 348 350 350 350 350 350 351 351 349 349 348 348 350 349 348 348 348 347 346 345 344 344 343 342 341 341 340 340 340 335 334 338 337 335 335 333 334 335 336 335 333 331 332 335 336 337 337 336 333 327 318 314 314 316 319 322 322 320 320 321 322 325 327 327 326 323 323 328 329 324
318 317 318 319 320 319 319 319 319 320 320 320 321 320 322 325 326 327 333 332 331 335 335 336 341 346 350 350 350 349 349 350 350 351 351 348 348 347 347 349 349 349 348 348 347 346 345 344 343 342 341 340 341 341 340 341 339 337 340 340 338 338 335 336 338 339 339 337 335 335 338 339 337 338 337 336 333 325 316 313 314 316 321 324 323 323 322 321 323 326 328 327 326 329 334 335 332
318 317 318 320 320 319 319 319 319 320 320 320 321 320 321 322 323 327 331 331 331 334 334 335 339 345 349 348 349 349 348 349 349 350 350 349 348 347 347 349 350 349 348 347 346 346 345 344 342 341 340 340 341 341 340 341 341 340 341 341 341 340 338 339 340 340 340 339 338 338 340 340 337 338 338 338 337 332 322 315 313 313 317 322 325 328 328 322 323 326 326 327 332 335 337 336 335
317 318 319 319 319 319 319 319 319 319 319 320 320 319 320 321 322 326 330 329 331 333 335 336 337 342 346 345 348 349 348 348 349 350 349 349 348 347 347 349 350 347 346 346 346 346 345 344 342 341 340 340 340 340 340 340 341 340 339 341 341 341 341 340 341 340 339 339 339 338 339 339 338 337 337 338 338 336 329 322 321 318 314 316 323 332 334 327 328 329 324 329 336 337 336 335 334
317 317 319 319 318 319 319 318 319 319 320 320 319 319 319 321 323 327 328 327 330 333 334 337 337 340 342 344 348 348 348 349 349 349 348 348 347 347 346 348 348 346 345 345 346 346 345 344 342 341 340 340 340 340 340 340 341 340 339 341 340 340 341 341 341 340 339 339 338 337 338 338 338 338 338 338 338 339 335 330 331 328 322 319 321 332 336 331 333 332 327 332 337 336 335 334 333
317 316 318 319 318 318 318 318 319 319 320 319 319 319 320 320 324 328 327 324 328 332 332 334 336 339 340 345 349 347 349 349 349 348 348 348 347 347 346 346 347 346 346 345 345 346 345 344 342 341 341 341 341 340 340 340 340 340 339 340 340 340 340 340 340 340 339 339 338 338 338 338 339 338 338 338 338 338 337 335 334 331 331 329 324 331 335 332 335 334 331 333 336 335 334 334 333
317 317 317 318 319 318 318 318 318 319 319 319 319 319 320 319 322 325 325 324 326 331 333 331 333 339 340 345 348 347 349 348 348 348 348 349 348 348 346 346 346 346 345 345 345 345 344 344 342 341 341 342 341 340 340 339 339 340 340 339 340 339 338 338 340 340 339 338 338 338 337 337 338 337 337 338 338 338 337 337 336 332 333 332 329 333 334 333 334 333 333 334 336 336 334 333 333
318 318 317 317 318 317 318 318 318 320 319 319 319 318 320 319 320 322 324 325 326 330 334 332 333 339 342 344 346 347 348 347 347 348 348 348 348 348 346 345 346 346 346 345 345 344 344 344 343 342 341 341 341 340 340 339 339 340 339 338 338 338 338 338 338 339 338 338 338 336 335 335 336 337 337 337 338 338 338 337 337 334 333 332 330 332 333 333 334 333 332 334 336 336 335 333 332
318 318 318 317 317 318 318 318 319 320 319 319 319 319 319 319 319 321 324 325 326 330 333 333 334 340 341 342 345 346 345 345 346 347 348 348 347 347 346 345 345 346 346 345 344 343 343 343 342 342 341 340 340 339 339 339 338 337 336 336 336 336 336 336 336 337 338 338 338 335 334 334 334 335 336 337 337 337 337 336 336 335 335 333 329 330 333 333 334 334 331 330 333 335 335 333 332
317 317 317 317 317 317 318 318 319 320 319 319 319 318 318 318 319 322 324 325 328 330 332 334 335 339 340 341 343 344 343 344 345 344 346 348 347 346 346 345 344 344 345 344 343 342 341 341 340 340 338 336 337 337 337 337 337 336 335 335 335 334 334 334 335 336 337 338 337 334 333 334 334 334 335 335 336 336 337 337 337 336 335 334 331 331 333 332 333 333 331 328 329 332 335 334 333
316 316 316 316 316 315 318 319 319 320 319 319 319 315 316 319 321 324 324 326 328 329 332 335 336 339 340 340 341 342 344 344 344 343 344 347 347 346 345 344 343 343 343 342 341 340 340 340 338 337 334 332 335 336 336 336 336 335 335 335 334 333 334 334 334 334 337 338 336 334 333 333 334 334 334 334 334 335 336 338 337 336 336 335 333 331 332 333 333 333 333 331 331 332 335 335 333
315 315 315 316 314 314 317 318 318 319 319 319 318 315 316 320 322 323 324 326 328 328 331 334 337 340 340 340 340 341 344 344 343 344 345 346 346 346 345 344 343 342 341 340 339 339 339 339 337 336 335 334 334 335 336 335 335 335 336 336 335 335 335 335 335 335 336 337 337 335 333 332 333 333 334 334 333 333 335 336 336 337 337 336 334 331 330 332 332 332 334 335 334 334 335 335 334
316 314 313 314 314 315 317 318 319 319 318 319 318 315 317 320 320 320 322 325 328 327 329 333 338 340 339 340 340 340 342 343 343 344 345 346 346 345 345 343 342 341 340 340 339 338 338 337 335 334 335 334 334 334 336 335 335 336 336 336 337 337 337 336 335 335 335 336 337 336 333 331 331 331 333 333 332 331 332 334 336 337 338 337 336 333 331 332 331 330 332 335 336 335 335 335 334
316 314 312 313 313 315 316 317 319 320 318 319 318 317 319 321 321 320 320 324 327 328 328 332 338 339 338 338 338 340 342 342 341 343 345 346 346 345 344 341 340 340 340 340 339 338 337 337 336 334 334 334 335 335 336 336 337 338 337 337 338 337 337 336 336 336 336 336 337 337 334 332 331 330 332 333 331 330 329 330 334 336 336 336 336 335 333 333 332 330 330 332 335 335 334 335 335
314 314 314 314 314 315 315 316 319 319 318 318 317 319 321 322 323 322 321 323 325 327 328 332 338 340 337 336 338 340 342 341 341 343 344 345 345 345 343 340 341 342 341 341 339 337 336 336 335 335 335 335 336 337 337 337 337 338 337 337 338 338 337 337 337 336 336 336 337 337 334 333 332 330 332 333 331 330 328 329 332 334 335 334 334 335 335 334 334 332 330 329 331 334 334 334 335
314 313 314 314 314 315 315 316 318 319 318 318 317 319 323 323 324 325 325 324 324 326 328 331 337 339 337 336 336 339 342 343 343 344 343 343 344 344 344 342 343 344 342 340 337 335 335 334 333 334 334 333 334 336 337 337 338 338 338 338 338 338 338 337 337 337 336 336 336 337 335 332 331 331 331 333 332 329 328 328 330 331 332 333 334 334 334 334 334 333 332 330 329 332 334 333 335
316 315 314 314 314 315 318 317 317 319 318 318 318 319 323 324 324 326 327 327 327 329 330 330 332 334 335 335 336 339 343 344 344 345 343 343 344 344 344 343 343 342 341 340 337 336 336 334 334 336 335 334 334 335 337 338 338 338 338 338 337 337 337 336 337 337 336 335 335 336 335 332 331 331 330 332 332 330 328 327 328 328 328 331 332 333 333 334 333 331 332 332 330 332 334 334 335
317 316 315 315 315 314 318 318 318 319 317 317 319 319 323 324 325 326 328 328 327 328 329 328 329 331 333 334 338 341 344 344 343 343 343 343 343 344 343 342 342 341 340 340 339 339 337 335 337 338 337 336 336 336 338 338 338 338 338 339 338 338 337 337 337 336 334 334 334 334 334 332 331 331 330 330 330 329 328 326 326 326 328 328 329 331 333 334 333 331 330 331 331 332 334 334 335
318 317 315 315 315 315 317 319 318 319 317 317 319 319 323 326 326 327 328 328 329 329 328 326 327 330 334 337 340 343 343 343 342 341 341 342 342 341 341 340 340 340 339 339 339 339 338 337 338 338 337 336 337 337 338 338 338 338 338 338 338 338 338 337 337 336 334 333 333 333 333 332 331 331 331 330 329 329 328 326 326 327 328 329 329 331 333 333 333 332 330 329 330 332 334 333 334
317 317 315 314 315 316 317 318 318 318 317 318 319 320 323 326 327 328 329 331 332 333 332 330 329 331 335 338 340 342 341 340 340 339 339 339 339 339 339 339 339 338 338 338 338 338 337 337 338 337 336 336 336 336 336 337 337 338 338 338 338 338 337 336 336 336 335 334 333 333 333 332 332 332 332 330 329 328 328 327 327 327 328 329 330 330 331 333 332 331 331 329 328 331 333 332 332
318 317 314 313 315 315 314 316 318 318 318 319 320 322 325 328 327 329 331 332 333 333 334 333 333 336 336 337 338 338 338 338 337 336 336 336 337 337 337 338 338 338 338 337 337 337 336 336 336 336 336 336 335 335 334 335 336 336 336 336 337 337 335 334 334 335 336 335 334 333 331 331 333 333 333 332 330 329 328 327 327 327 328 329 329 328 328 332 333 331 330 329 328 331 333 333 332
317 317 315 314 315 316 315 316 318 317 317 320 321 321 324 326 327 329 330 331 332 331 333 335 335 336 336 335 335 334 335 335 334 334 333 334 334 335 335 336 336 336 336 336 335 335 335 335 335 335 335 335 334 334 333 334 334 334 334 335 335 335 334 334 335 336 337 336 334 332 330 331 334 334 334 333 331 330 329 328 326 326 327 328 328 327 326 330 333 333 331 329 330 333 334 334 334
316 316 316 316 316 317 317 317 316 315 315 319 320 317 319 322 325 328 328 329 331 332 334 335 334 334 333 332 331 331 331 331 331 331 331 331 332 332 334 334 334 334 335 335 335 335 335 335 335 335 334 334 333 333 333 333 334 334 334 335 336 336 336 336 337 336 336 336 334 332 330 330 331 332 333 333 332 331 331 329 327 326 325 326 327 326 325 328 331 332 331 330 330 331 332 332 333
314 315 316 317 317 317 317 317 315 313 313 319 321 317 316 320 324 328 328 328 331 333 333 332 331 330 329 329 329 328 329 328 328 329 329 330 330 330 332 333 333 333 333 334 334 334 334 335 335 335 335 334 333 333 332 333 334 333 333 334 335 336 336 336 336 336 336 336 333 331 331 329 328 330 332 332 331 331 331 331 329 327 325 325 326 326 324 326 329 330 330 330 329 329 328 329 329
313 316 316 316 317 317 317 317 315 315 316 318 320 317 316 319 323 328 329 327 330 332 330 329 328 327 326 326 326 326 326 326 326 327 327 327 328 328 329 330 331 331 332 332 333 333 333 334 334 334 334 334 333 333 333 333 333 333 332 333 335 336 336 336 336 336 336 335 333 332 332 330 329 329 329 329 329 329 329 330 329 328 326 326 327 327 325 324 327 330 329 329 329 329 328 328 328
314 317 316 316 317 317 317 317 315 316 316 315 318 317 316 319 324 327 328 328 329 331 329 327 326 325 325 325 324 324 324 324 325 325 325 326 326 327 327 328 329 330 330 330 331 331 332 333 333 333 333 334 334 333 334 334 334 333 334 335 336 336 336 336 336 336 336 335 332 331 332 331 330 329 328 327 327 327 328 329 329 328 327 326 327 327 326 324 326 330 330 330 330 329 329 329 328
315 317 317 316 317 317 317 317 315 315 315 314 316 317 314 318 324 325 327 328 329 330 328 325 325 324 324 324 323 323 323 323 324 324 324 325 325 326 326 326 327 328 328 328 329 329 330 331 332 331 332 332 333 333 334 334 334 334 335 335 335 335 335 335 335 336 336 336 333 332 333 332 331 330 328 326 325 326 328 329 329 328 327 327 328 327 327 326 327 329 330 330 329 329 329 329 329
316 317 316 315 315 317 316 316 315 314 314 314 316 317 314 318 326 326 325 327 328 330 327 324 324 323 322 322 322 322 322 322 322 323 323 323 324 324 325 325 325 325 326 326 327 327 328 329 329 330 329 330 330 331 332 333 333 334 335 335 335 334 334 335 335 335 336 337 336 335 334 332 332 331 328 326 325 326 327 328 329 329 330 329 330 330 329 328 328 329 330 330 329 328 328 329 328
316 316 315 314 314 314 314 314 314 312 313 314 315 318 314 316 323 325 324 327 328 328 326 324 323 322 321 321 321 321 321 321 321 322 322 323 323 323 323 324 324 324 324 325 325 326 326 327 327 328 327 327 328 328 329 329 330 331 332 333 334 334 335 335 335 334 336 336 335 336 336 334 332 330 329 328 327 326 327 326 326 328 330 331 331 331 330 330 329 328 330 331 330 329 328 328 327
315 315 314 313 312 313 313 313 313 312 312 313 315 317 314 315 322 325 328 330 328 327 325 323 322 321 320 320 320 320 320 320 320 320 321 321 322 322 322 322 322 323 323 324 324 324 325 325 325 326 326 325 326 326 327 327 327 327 328 330 331 333 334 335 335 334 333 334 334 335 337 335 334 332 330 329 329 329 329 328 326 325 326 328 330 331 330 331 330 328 329 330 329 328 327 327 327
314 314 313 312 311 313 314 313 312 313 312 314 316 315 315 323 331 331 329 328 326 325 323 322 321 321 320 320 319 319 319 319 319 319 320 320 320 320 321 321 321 321 322 322 322 322 323 323 323 324 324 324 325 325 326 326 326 326 327 328 329 330 331 332 334 334 333 333 333 334 334 334 334 335 334 332 331 332 332 331 329 326 325 325 327 329 330 331 330 329 329 329 328 327 328 328 328
314 315 314 313 312 313 314 313 313 312 312 314 315 314 318 328 331 328 327 327 326 324 321 321 321 320 320 319 318 318 318 318 318 318 319 319 319 320 320 320 320 320 321 321 321 321 321 322 322 322 323 323 323 324 324 324 324 324 326 327 327 328 329 330 332 333 334 333 333 333 333 333 333 334 335 334 332 332 333 333 330 328 327 325 326 328 330 331 329 328 329 330 329 328 328 329 328
315 315 313 313 313 314 313 313 313 313 314 314 315 321 325 330 329 327 327 326 325 323 321 321 320 320 320 319 318 318 317 318 318 318 318 318 318 318 319 319 318 319 320 319 320 320 320 320 321 321 322 322 322 323 323 323 323 323 324 325 325 326 327 328 330 332 333 333 333 333 333 333 333 332 332 331 330 331 333 333 332 330 328 325 325 326 328 330 330 329 327 328 330 329 328 328 329
314 313 312 314 316 316 313 313 315 314 314 314 319 328 330 330 330 327 326 325 324 324 323 322 321 320 319 319 318 317 317 317 318 318 318 317 317 317 317 318 318 318 318 318 319 319 319 319 320 320 321 321 321 322 322 322 323 323 322 322 323 324 325 327 328 329 331 332 332 333 333 333 332 331 330 329 329 329 330 332 332 331 329 326 325 325 326 328 329 329 328 327 330 330 328 328 330
314 312 314 315 316 317 314 314 314 314 315 315 320 330 330 329 330 329 326 326 324 323 323 322 321 320 319 319 318 317 317 317 317 317 317 316 316 316 316 317 317 317 317 317 318 318 318 319 319 319 320 320 320 321 321 322 322 322 322 321 320 321 322 324 326 328 329 330 331 332 332 332 332 331 330 330 330 329 329 331 332 331 330 329 327 325 326 327 328 329 328 328 329 330 328 328 330
315 314 315 315 314 314 313 314 314 314 316 316 319 328 329 326 328 329 327 326 324 322 322 321 321 320 319 318 317 317 316 316 316 316 315 315 315 315 315 316 317 317 317 317 317 317 318 318 318 319 320 319 319 320 320 320 321 321 321 321 320 321 321 323 325 327 328 329 329 330 331 331 331 331 330 329 329 329 328 330 331 330 330 330 329 327 327 328 328 328 329 329 330 330 330 329 329
315 315 315 315 314 314 313 314 315 314 314 317 319 324 326 325 327 328 327 326 324 322 321 320 320 320 318 317 317 316 316 315 315 314 314 314 314 314 315 315 316 316 316 316 316 317 317 317 317 318 319 318 318 319 319 319 320 320 321 321 320 321 321 322 324 325 326 327 328 329 331 331 331 331 330 329 328 329 329 329 330 330 329 330 330 328 327 328 328 328 329 330 330 330 330 330 330
314 314 313 313 313 315 315 313 314 313 313 316 317 320 325 327 328 327 326 326 324 322 321 320 319 318 317 316 316 315 315 314 314 313 313 313 313 314 314 315 315 315 316 315 315 316 316 315 316 316 317 318 318 318 318 318 319 319 320 320 320 321 320 321 322 323 324 326 327 328 330 331 331 330 330 329 328 328 329 329 328 328 328 329 331 330 328 329 330 329 329 330 330 330 330 330 331
314 314 313 314 313 313 313 313 314 313 313 314 314 322 328 327 326 327 326 325 324 323 321 319 317 316 315 315 314 314 313 313 313 313 313 313 313 314 314 314 314 315 315 314 314 315 315 315 315 316 316 317 317 317 317 318 318 319 319 320 320 320 320 320 321 321 322 324 326 327 328 329 330 330 330 329 329 328 328 328 327 327 327 327 330 332 330 330 331 330 330 330 330 331 330 330 331
Wind_Speed
3 2 1 2 2 4 9 9 8 6 5 9 8 10 9 4 2 5 5 3 3 2 1 2 1 2 4 4 9 16 15 10 7 5 4 7 11 12 10 13 17 16 16 15 19 22 19 17 15 13 12 11 11 11 12 12 12 11 11 9 8 6 5 6 6 6 8 8 9 10 10 11 12 13 15 15 15 15 15 14 14 14 13 14 14 15 15 15 15 15 14 13 12 12 12 11 11
2 2 1 2 2 7 8 8 7 6 7 10 7 12 10 3 1 6 3 1 3 4 1 0 3 2 2 2 7 13 15 15 11 12 11 12 13 11 11 15 17 15 17 16 17 21 20 18 15 13 12 11 11 11 12 12 12 12 11 10 8 7 6 6 7 8 9 9 9 10 10 11 12 14 16 16 17 17 16 15 14 14 14 15 15 15 15 15 15 14 14 13 12 11 11 10 10
3 4 2 2 6 10 8 6 7 7 9 9 7 8 3 3 2 3 4 4 3 2 3 3 5 3 2 5 6 8 11 12 13 14 13 13 12 11 14 16 15 14 16 16 16 18 19 19 16 13 12 11 11 11 11 12 12 12 11 10 8 7 7 8 9 9 9 9 10 10 10 11 13 15 17 17 17 17 16 15 14 14 15 15 15 15 14 14 13 13 13 13 12 10 9 9 8
4 5 6 7 8 10 8 6 7 8 9 8 7 3 5 1 0 7 6 1 1 3 5 6 7 5 4 4 7 8 10 9 10 11 11 10 10 13 16 16 15 13 14 17 17 15 17 19 16 14 12 11 11 11 11 12 12 12 11 10 9 8 8 9 10 10 9 10 10 10 11 12 15 16 17 16 16 17 16 16 15 15 15 14 14 15 14 13 12 11 11 11 10 9 8 8 8
4 5 7 9 9 5 5 6 6 8 8 8 7 3 5 0 5 7 4 2 4 6 6 5 6 8 8 11 7 6 8 8 9 9 11 10 11 14 16 18 15 12 14 16 17 14 16 19 16 13 12 12 11 12 12 13 13 12 12 10 9 9 9 10 11 11 10 10 10 10 11 13 15 16 16 15 16 17 17 16 15 15 15 14 14 13 13 12 11 10 10 9 8 8 8 8 8
4 7 8 10 10 6 5 7 7 9 9 10 9 2 4 2 6 3 2 4 6 6 6 3 4 10 9 11 11 10 6 6 9 8 11 12 14 15 15 18 15 12 15 17 16 13 17 19 15 13 12 11 11 11 12 12 12 12 11 10 10 9 10 11 11 11 11 11 11 11 11 13 15 15 15 15 15 16 16 16 16 15 14 14 13 13 12 11 10 10 9 8 8 7 7 8 8
6 8 9 9 10 6 7 9 8 9 8 9 9 3 4 4 4 2 4 6 7 7 6 3 5 10 9 9 11 11 6 6 8 8 11 14 15 15 15 18 16 14 15 17 15 13 18 19 14 13 12 11 11 11 11 11 11 10 10 10 9 9 10 11 11 11 11 11 11 11 12 13 14 14 14 14 15 16 16 16 15 15 15 14 13 12 11 10 9 8 9 9 8 8 8 8 9
8 10 9 7 7 6 7 9 9 9 4 2 5 4 2 3 2 3 5 6 8 9 8 6 6 6 7 10 9 8 7 7 9 11 13 15 15 15 15 16 17 17 16 15 13 13 18 18 14 13 12 12 11 11 11 10 10 9 9 9 9 9 9 11 11 11 11 11 12 12 12 12 13 13 13 13 14 15 15 14 14 15 15 13 12 10 9 8 7 7 9 9 9 9 9 9 10
10 11 8 6 7 7 7 9 9 11 7 2 4 4 3 3 2 5 6 5 5 7 9 9 8 6 10 11 10 10 8 9 12 13 14 14 15 15 14 15 17 17 16 15 12 13 18 18 14 13 12 12 11 11 10 9 9 9 9 9 9 8 9 11 12 12 11 12 12 12 12 12 13 13 13 13 13 14 13 12 12 14 14 12 11 9 8 7 7 8 9 10 10 10 10 11 13
11 11 7 5 7 8 8 8 8 9 9 5 4 4 5 7 5 6 9 7 7 8 7 8 8 7 13 12 10 9 8 11 13 13 13 13 14 13 13 14 16 17 16 14 11 14 19 17 15 14 13 12 11 11 9 8 8 8 9 9 9 9 10 11 12 12 11 12 12 12 12 12 13 13 13 13 13 13 12 12 12 14 13 11 10 9 8 8 9 10 10 10 10 10 12 13 15
10 11 9 6 7 8 7 7 7 8 5 3 4 6 6 6 5 7 10 7 8 9 8 8 7 9 14 12 9 8 10 11 12 13 13 13 14 12 13 15 15 16 15 13 11 15 20 17 15 14 13 12 11 10 9 8 8 8 9 9 10 10 10 11 12 12 12 12 12 13 13 13 13 13 13 13 13 13 12 12 12 14 13 12 11 10 10 11 11 11 10 10 10 11 13 15 16
9 8 7 7 7 7 7 7 6 3 2 4 6 7 4 4 6 8 11 9 8 9 10 9 8 11 10 10 9 8 11 12 12 12 12 12 13 12 13 15 15 15 14 13 10 15 19 17 15 14 13 13 12 10 9 8 9 9 10 10 10 10 10 11 12 12 12 12 13 13 13 14 14 13 13 13 13 13 13 13 14 14 13 13 12 12 13 12 12 11 11 11 12 13 15 15 16
10 7 6 6 7 8 7 7 4 3 4 6 5 6 2 6 9 9 11 11 11 10 11 9 8 10 7 11 11 10 13 13 13 13 12 13 13 13 13 14 14 14 14 13 10 13 16 17 15 15 14 13 13 11 10 10 10 10 11 11 11 10 11 12 12 12 12 12 13 13 13 14 14 14 14 14 13 13 14 15 15 15 15 14 14 13 13 12 12 12 12 12 13 14 15 16 16
12 9 7 6 7 8 7 6 5 7 5 4 6 2 5 8 8 8 9 12 12 9 11 7 8 10 8 9 10 11 14 14 14 13 13 12 13 14 13 13 14 14 14 14 13 12 14 16 15 14 15 15 14 13 13 12 11 11 11 11 11 11 12 12 12 12 12 12 12 13 13 14 15 14 14 14 14 13 14 16 16 15 15 15 15 14 14 13 12 12 12 13 14 15 16 17 17
12 10 6 6 7 6 6 7 7 7 3 7 5 3 7 6 6 9 11 11 8 8 10 6 5 7 9 10 10 15 17 16 15 13 13 13 13 12 13 14 13 13 13 14 14 13 14 15 14 14 14 15 15 15 15 14 13 12 12 12 12 12 12 12 12 13 13 12 12 12 12 13 14 14 14 15 15 13 13 15 16 15 16 16 15 15 14 13 12 12 12 13 14 16 16 17 17
11 9 5 6 8 6 6 7 7 7 3 6 5 6 8 8 9 11 8 5 10 10 7 7 4 2 9 11 13 19 19 18 16 13 14 14 13 12 13 13 13 14 13 14 14 13 15 16 15 15 14 14 14 15 16 15 14 13 13 13 13 12 12 12 12 13 12 12 12 12 11 11 12 11 13 15 15 14 13 14 16 16 16 16 16 15 14 13 12 12 12 12 14 16 17 17 18
9 8 6 6 8 6 4 6 6 2 6 6 5 5 8 9 10 8 4 4 11 11 5 7 5 2 6 13 17 21 20 19 17 14 15 15 14 13 12 12 13 16 15 15 16 15 16 17 16 15 16 15 14 14 15 16 15 14 14 13 13 13 13 13 13 13 13 12 12 12 11 9 8 8 10 14 15 16 14 13 15 16 16 16 16 15 14 13 13 12 12 12 13 15 16 17 17
8 6 7 6 7 6 3 4 3 3 8 5 5 4 5 8 12 9 9 9 11 12 8 8 8 10 12 17 20 22 20 18 17 16 16 15 15 14 14 13 13 15 15 14 16 16 17 18 17 16 16 16 15 15 15 16 16 16 15 14 15 14 15 14 14 13 13 13 13 13 11 9 8 7 7 10 13 15 15 14 15 16 16 16 16 16 15 13 13 13 12 12 12 14 15 16 16
9 7 6 7 7 3 1 2 3 4 5 3 4 3 4 4 9 12 13 10 12 12 11 9 10 15 16 19 21 21 19 16 16 16 15 14 14 14 14 14 13 14 15 15 15 16 16 17 18 17 17 18 17 17 16 16 17 16 15 15 15 15 16 15 15 14 13 14 14 14 13 10 10 9 8 9 11 13 15 16 15 16 16 16 16 15 15 14 13 13 13 12 12 13 14 14 14
11 9 6 8 7 2 1 2 2 4 2 2 2 2 3 4 5 11 13 11 13 11 12 11 10 15 19 21 21 20 18 15 15 15 14 12 12 12 13 13 14 14 14 15 16 17 16 17 18 17 17 19 19 18 17 17 17 17 16 16 16 16 16 15 15 13 13 13 13 13 13 13 13 12 11 11 10 11 14 16 17 17 17 17 16 15 14 14 14 14 14 13 12 12 11 9 10
10 10 8 7 3 4 4 5 4 3 1 2 1 3 6 7 4 8 12 11 12 11 14 15 12 14 19 20 20 19 17 15 14 14 13 11 10 11 11 11 12 12 12 13 15 17 17 17 18 18 18 20 19 19 18 17 17 17 17 16 16 16 15 15 15 14 14 13 13 12 12 14 15 14 14 13 12 11 12 14 17 17 17 17 17 16 15 14 14 15 15 14 12 10 9 8 8
9 9 13 10 2 4 4 6 4 3 3 2 2 3 2 6 8 10 12 8 8 11 15 17 16 14 18 20 18 19 16 15 14 13 12 11 10 10 10 10 9 11 12 12 13 16 17 17 18 20 20 20 19 19 19 17 17 18 19 17 16 15 15 14 14 16 15 14 13 13 14 15 16 17 16 14 13 12 12 13 15 17 18 19 17 15 14 14 14 14 15 14 11 9 10 11 10
9 8 13 14 6 6 3 6 6 5 6 3 3 1 1 7 9 11 9 3 2 9 13 17 17 13 16 18 17 18 16 15 14 13 11 10 10 10 9 9 8 10 13 14 13 14 16 16 18 20 20 19 18 19 18 17 19 19 19 19 18 16 14 14 15 16 15 15 16 14 15 15 15 16 17 16 13 12 13 13 14 15 17 19 17 15 14 15 15 15 14 13 11 10 11 11 11
11 8 11 12 11 10 4 5 7 7 6 4 3 2 6 8 8 11 6 3 5 9 13 16 15 14 15 16 16 17 15 14 12 11 10 9 9 9 7 7 7 7 10 13 13 13 15 15 16 17 18 18 17 18 18 17 18 17 16 17 16 15 15 15 15 14 13 15 15 14 15 15 14 15 17 17 15 13 14 14 16 16 16 17 17 17 16 15 16 16 15 14 12 11 11 11 11
13 11 10 9 11 12 8 7 7 9 8 5 5 5 8 6 7 12 8 7 8 10 14 16 12 13 15 14 15 15 13 12 11 10 9 8 9 8 7 6 7 7 9 11 12 13 14 15 16 16 16 15 15 16 16 15 12 11 12 13 13 12 12 10 10 11 12 13 13 14 15 15 16 17 18 18 17 17 15 16 18 17 17 17 18 19 18 16 16 17 16 15 13 12 12 11 10
12 15 13 8 10 11 10 10 10 11 9 7 7 8 8 5 7 11 10 9 11 11 14 17 14 13 15 14 14 13 12 11 10 11 9 8 8 7 6 5 5 7 7 9 10 11 10 10 11 12 12 11 12 13 11 9 7 7 9 9 9 7 6 6 7 10 9 10 11 13 14 15 16 16 16 16 16 18 17 16 17 17 17 18 19 19 18 17 17 18 17 16 14 13 13 12 11
7 13 16 12 11 11 10 12 13 12 10 10 9 9 9 10 10 8 11 10 11 13 13 17 17 14 15 14 13 12 12 11 10 10 9 8 7 6 6 4 5 4 4 7 9 8 5 5 4 4 5 5 6 6 5 6 6 6 7 7 8 5 5 8 8 9 8 9 11 11 13 15 15 13 14 14 15 17 18 16 16 17 16 18 19 19 18 17 16 17 19 18 16 14 13 13 11
6 8 12 14 13 11 11 13 14 12 11 12 11 9 10 13 13 8 14 13 11 14 14 15 16 14 14 14 13 12 11 10 9 9 8 7 6 5 4 3 4 3 3 7 7 5 3 3 4 1 3 3 3 4 5 7 7 7 7 8 9 8 9 11 9 9 10 10 10 9 12 15 16 15 14 13 13 14 15 15 15 15 16 17 18 18 18 17 16 18 20 19 18 16 13 13 12
10 8 9 12 13 12 13 14 14 13 12 16 14 8 10 13 11 10 16 14 12 14 13 13 14 13 14 14 13 12 11 10 8 7 7 6 4 4 4 2 2 2 2 5 4 4 4 5 5 4 6 8 8 8 8 8 7 8 8 8 10 11 12 12 11 11 11 11 9 10 13 15 17 17 15 14 14 10 9 11 13 14 16 16 17 18 18 18 17 18 20 19 19 17 14 13 13
12 10 8 10 11 11 15 16 16 16 12 18 16 8 10 13 11 13 14 12 12 13 13 13 13 13 14 14 13 12 11 10 8 7 6 6 4 3 4 2 1 2 2 3 2 2 3 3 4 6 9 10 10 9 9 9 9 9 9 9 11 13 13 12 13 12 11 11 11 12 14 15 16 16 14 14 13 10 9 11 13 13 15 16 17 19 19 18 18 17 19 19 18 18 15 15 13
11 10 8 9 8 10 16 18 19 17 12 18 17 8 10 14 14 13 12 11 12 13 14 14 13 13 13 12 12 12 11 9 8 7 6 7 5 3 3 3 2 2 1 2 3 3 1 1 4 6 9 10 10 10 10 10 11 11 10 10 11 13 13 13 13 13 12 11 11 13 15 16 14 14 14 13 13 13 12 11 11 12 14 16 17 19 19 19 18 18 19 18 17 17 16 15 14
9 9 8 9 8 9 17 20 19 17 13 18 18 9 9 13 15 15 13 12 13 13 15 15 14 13 13 13 12 11 11 9 9 7 6 7 5 3 4 4 3 1 1 1 3 4 3 1 3 5 6 8 10 11 11 11 11 11 11 11 11 13 14 14 14 14 14 12 11 13 15 15 13 12 14 14 14 15 14 11 11 13 15 17 17 17 19 19 18 19 19 18 17 16 16 15 14
9 10 8 10 11 9 15 18 20 19 14 17 20 10 7 11 13 16 15 15 14 12 13 15 15 14 14 13 12 11 11 9 9 8 5 6 6 3 3 2 2 2 1 2 3 4 5 4 4 5 5 6 9 11 11 10 10 10 11 12 12 13 14 14 14 14 15 12 11 14 15 14 12 12 14 16 16 15 15 14 13 13 16 19 19 17 18 17 17 19 20 19 17 16 16 15 14
9 9 8 10 13 9 12 15 19 22 16 16 22 11 9 11 12 15 15 15 16 14 13 15 15 15 14 13 13 11 10 9 8 7 5 4 5 4 2 1 2 3 2 4 5 3 3 5 5 4 4 5 7 10 11 10 10 11 12 13 12 13 13 13 15 15 15 14 13 14 15 13 12 12 14 16 17 15 16 17 16 12 13 19 19 17 17 16 16 18 19 20 19 16 15 15 14
9 10 9 10 13 12 12 15 17 22 17 16 22 13 11 11 11 12 12 13 14 13 12 15 16 15 12 12 13 11 9 9 7 6 4 3 4 4 2 2 4 2 1 2 3 1 1 2 5 5 5 6 7 9 10 10 10 10 11 13 13 13 13 13 14 15 16 16 14 13 14 13 11 11 13 16 17 16 15 17 17 14 14 17 17 17 17 16 17 19 18 19 21 18 14 14 14
12 12 11 9 11 11 11 14 17 20 16 15 20 14 13 12 10 11 10 10 9 9 9 12 16 16 14 12 11 11 10 10 9 7 6 4 3 4 4 2 3 2 1 2 2 1 1 2 3 5 6 6 6 6 7 8 8 9 9 11 12 13 14 13 14 16 17 17 14 12 14 13 11 12 14 16 17 16 16 16 16 15 16 18 17 18 17 16 19 19 19 18 19 18 15 14 14
11 13 13 11 10 11 12 14 19 20 14 14 19 15 13 11 9 10 10 10 10 10 10 11 14 17 15 12 12 12 10 9 9 8 7 6 4 4 5 4 4 4 4 4 2 2 1 2 3 4 5 5 4 4 5 5 5 7 8 9 10 11 13 13 13 16 18 17 15 15 16 16 14 14 14 15 16 16 17 16 15 15 17 18 18 18 17 18 19 18 19 19 19 18 16 15 15
10 10 12 10 10 11 10 11 18 20 13 13 20 16 13 9 8 10 10 10 8 9 10 11 13 15 14 13 14 12 10 10 9 8 8 7 7 6 6 5 4 5 5 5 4 2 2 2 3 3 4 4 3 3 4 4 5 7 8 9 10 9 10 10 11 15 17 16 15 15 16 17 15 14 14 14 15 15 16 16 16 16 17 17 18 18 16 17 18 17 18 20 21 19 16 17 17
9 8 10 10 10 11 9 11 15 17 12 11 15 13 12 10 8 9 9 10 9 8 8 7 9 11 13 14 13 12 12 12 11 11 11 10 10 8 6 6 4 5 5 5 5 3 2 2 3 4 5 5 4 4 5 4 5 6 7 8 8 8 10 11 13 15 16 14 14 15 15 15 14 13 13 15 16 16 15 15 15 16 17 16 17 18 17 17 17 18 18 18 21 19 16 17 18
9 9 10 8 12 13 9 11 15 15 11 9 12 10 10 10 9 9 10 13 12 12 11 10 13 16 17 16 15 15 13 13 12 12 11 11 11 10 9 8 6 6 5 4 3 1 2 3 4 4 4 5 4 6 6 4 6 7 7 8 8 9 11 13 14 13 13 13 14 14 13 12 13 12 12 14 16 17 16 14 14 15 16 15 16 19 19 18 16 17 18 18 18 16 14 15 17
11 12 10 9 14 14 9 11 14 15 13 11 14 10 7 10 10 8 10 13 13 14 15 16 19 21 20 18 17 16 14 14 13 12 12 12 12 12 11 9 8 7 7 5 4 3 3 4 6 5 4 5 5 6 6 4 4 6 6 6 7 8 10 10 10 10 10 10 11 11 9 9 11 11 11 12 14 16 16 15 15 16 16 16 17 19 20 20 17 16 18 19 16 14 13 13 14
11 13 13 13 14 13 13 14 13 11 11 11 15 11 7 11 12 10 10 11 12 14 17 17 18 18 18 17 15 14 14 14 13 12 12 12 12 12 10 9 8 9 9 7 5 5 4 4 5 6 6 6 6 6 6 5 4 5 5 5 6 7 8 8 8 9 8 9 10 8 6 7 9 9 9 10 12 15 16 16 16 17 17 17 18 18 20 23 22 19 18 16 16 16 15 15 15
9 12 15 17 14 15 17 18 13 9 10 12 15 11 7 11 13 12 12 12 13 13 14 15 16 16 16 15 13 13 12 11 11 12 11 12 12 12 11 10 8 8 8 6 6 6 6 5 5 5 6 7 8 8 7 5 4 6 6 6 6 7 8 9 8 8 8 10 10 8 7 7 8 9 8 9 11 14 16 16 16 16 16 16 17 18 20 23 24 22 18 15 15 16 17 18 19
8 12 16 16 13 16 16 15 12 9 9 12 16 14 7 8 12 14 14 13 14 11 11 13 14 15 16 14 13 12 11 9 10 10 11 12 12 12 12 11 10 9 8 6 7 6 6 6 6 5 5 6 7 7 7 5 5 6 7 6 6 7 8 9 8 8 8 9 9 8 9 9 8 9 8 9 11 13 15 16 16 16 15 15 17 19 20 21 23 23 20 18 17 17 19 20 19
10 12 16 13 11 15 15 13 12 11 10 10 15 16 9 7 10 13 14 14 13 12 10 11 13 14 14 13 12 11 11 10 10 10 11 12 12 12 11 11 10 10 10 9 8 7 6 6 6 5 5 6 6 6 7 6 6 7 7 7 7 8 8 9 9 8 8 10 9 7 8 9 9 9 9 10 11 13 14 14 15 16 16 16 17 19 20 20 23 24 23 21 19 19 21 21 21
13 13 16 12 10 12 12 12 12 11 10 9 14 17 10 7 10 12 14 14 13 11 10 10 13 14 13 12 11 11 11 10 11 10 11 11 11 11 10 10 10 9 9 9 8 8 7 7 7 5 4 4 3 3 4 4 5 6 7 7 8 9 10 10 10 10 9 10 11 9 9 11 10 9 10 11 12 13 14 14 15 16 16 17 17 19 20 20 22 23 24 22 20 20 22 22 23
14 8 12 14 10 9 9 10 11 10 10 12 16 18 14 8 8 10 11 13 14 12 10 10 13 14 12 12 11 11 10 10 10 10 10 11 10 9 9 9 10 9 9 8 8 8 7 7 8 7 5 4 3 1 0 1 2 3 5 7 9 10 11 12 12 11 9 10 11 11 11 13 11 11 11 11 11 12 13 14 15 15 16 17 18 20 21 21 21 21 22 22 21 22 23 23 24
15 7 10 12 9 8 8 8 11 10 10 14 16 19 18 11 8 12 13 13 15 14 11 11 13 14 13 12 12 11 11 10 9 9 10 10 9 9 9 9 9 9 9 8 8 7 7 7 8 8 7 6 5 4 2 2 4 4 5 6 8 9 10 12 13 12 11 12 14 14 13 14 14 12 12 11 11 12 14 15 15 16 16 18 19 20 21 21 21 20 21 21 22 23 22 22 23
15 11 11 11 9 8 8 9 11 10 10 13 16 18 16 7 4 11 12 13 15 14 13 13 14 15 14 13 12 11 11 10 10 10 10 10 9 9 9 9 9 9 9 9 8 8 7 7 8 9 9 8 7 6 6 4 3 4 5 6 8 9 9 11 13 14 15 15 15 15 14 14 14 12 11 12 11 12 14 15 16 17 18 19 19 19 21 21 21 21 21 21 21 22 22 22 23
15 12 12 11 9 9 9 10 9 9 11 11 15 16 10 5 5 9 15 17 18 19 17 15 16 15 14 14 13 12 11 10 11 10 10 10 10 9 9 9 9 9 9 9 8 8 7 8 9 9 9 9 9 8 8 7 6 5 4 5 7 8 9 11 12 13 16 17 16 16 17 16 16 13 12 13 12 12 16 16 16 17 17 18 19 19 20 21 22 21 21 21 21 21 21 23 24
15 13 12 11 10 9 9 9 9 10 10 9 12 11 5 7 5 9 16 19 20 21 19 16 15 15 14 14 13 12 11 10 10 10 10 10 9 9 9 9 9 9 9 9 9 9 8 8 9 10 9 9 10 9 9 8 7 7 7 6 7 8 9 11 11 11 14 16 17 18 18 17 17 15 14 14 14 14 18 18 17 17 17 18 19 20 19 19 21 22 21 21 21 21 21 22 24
12 13 12 12 12 9 7 9 8 6 7 8 7 2 4 6 7 10 15 17 18 20 19 16 14 13 13 13 12 11 11 10 10 10 10 10 10 10 9 9 9 10 10 10 10 10 9 10 10 10 10 10 10 10 9 9 9 9 9 8 9 9 10 10 10 10 13 15 16 18 18 17 17 17 16 17 17 17 18 18 17 18 18 19 20 21 20 20 21 21 21 21 21 22 22 22 23
10 12 12 12 14 11 8 9 6 4 7 8 6 5 6 6 5 9 13 14 14 16 17 15 13 12 12 12 12 11 10 10 10 11 10 10 10 10 9 10 10 10 10 10 11 11 10 10 11 11 11 10 11 10 9 9 9 10 10 10 11 11 10 11 11 11 12 13 14 17 18 18 18 18 19 19 19 19 19 19 19 19 18 20 22 21 22 23 22 22 22 21 22 23 23 22 23
9 10 12 12 13 12 8 7 7 7 8 8 7 8 8 7 5 9 13 13 12 13 14 14 13 12 12 12 11 10 10 10 10 10 10 10 10 9 9 9 10 10 10 11 11 12 11 11 12 13 13 12 12 11 10 9 10 9 10 11 12 11 11 12 12 12 13 12 13 14 16 18 19 20 20 21 20 20 20 20 20 19 17 18 20 21 21 23 24 25 24 22 22 24 24 24 24
15 11 12 11 11 12 9 8 9 10 9 8 9 11 9 7 7 12 16 15 14 13 12 13 12 12 13 12 11 10 10 9 9 9 9 9 8 9 9 9 10 10 11 11 12 12 13 12 12 11 12 13 12 11 10 10 10 10 10 12 12 12 12 12 13 14 14 14 13 13 14 16 18 21 21 21 20 20 21 21 20 19 18 17 18 19 21 22 24 26 25 24 24 24 25 25 25
17 13 13 11 10 10 9 8 8 9 10 9 10 10 7 5 8 15 17 15 16 15 12 11 12 13 12 11 10 9 9 8 8 8 8 8 8 9 10 9 10 11 11 12 12 12 12 13 13 11 11 14 13 11 10 10 11 11 12 13 14 14 13 13 13 14 15 15 14 14 15 15 17 20 20 19 19 19 21 22 20 20 20 18 17 18 19 21 23 25 25 26 26 25 25 26 26
14 13 13 12 10 9 9 9 8 9 10 9 9 9 4 1 3 13 16 15 15 15 13 12 13 14 12 11 10 9 9 9 8 8 8 8 9 10 11 10 11 11 12 12 12 12 13 14 14 13 13 14 14 12 11 11 11 12 13 15 16 17 16 16 15 14 14 15 16 15 16 17 17 18 19 18 19 19 19 19 20 20 22 20 18 18 19 19 21 23 25 26 26 26 26 27 26
14 11 12 13 12 11 10 10 10 9 9 9 9 6 3 5 4 5 12 13 14 16 16 15 15 15 13 12 11 10 10 9 8 8 8 9 10 10 11 11 12 12 12 12 12 13 14 14 14 13 13 14 14 12 12 11 11 12 13 14 15 17 18 18 18 17 15 14 15 15 15 17 18 18 18 17 18 18 18 19 21 22 24 23 22 20 20 20 22 23 24 25 26 26 26 27 27
Wind_Direction
308 325 19 94 100 258 247 235 253 229 227 262 258 268 269 262 285 285 266 214 249 122 35 307 165 316 325 348 81 76 52 33 8 20 80 122 137 146 149 145 150 152 152 155 164 169 169 170 168 168 168 169 175 178 181 183 182 179 178 178 180 179 161 143 135 135 131 121 106 94 94 101 108 115 119 120 120 118 114 111 112 110 109 110 109 110 109 110 108 107 108 108 107 105 105 106 104
301 309 84 105 214 253 248 215 252 256 235 256 249 260 249 142 135 248 257 94 27 70 99 340 132 106 46 55 98 90 63 54 60 78 99 128 135 143 145 147 152 153 153 155 161 168 171 169 168 171 169 171 174 179 183 183 184 181 182 181 183 181 162 149 142 143 136 123 108 101 100 109 118 122 123 122 121 118 114 112 112 112 112 113 112 112 110 110 108 109 109 108 107 104 104 102 98
219 248 213 236 233 241 259 227 244 258 252 260 258 271 234 158 239 183 76 49 29 83 171 137 134 106 145 155 89 78 74 68 77 93 112 134 140 146 146 148 153 153 154 155 156 165 173 168 168 171 168 173 174 181 185 185 186 184 185 183 186 179 160 152 148 147 138 126 114 109 107 117 126 127 128 127 124 119 116 115 115 115 115 114 114 113 111 109 107 108 107 107 107 105 101 95 93
193 218 219 247 240 226 244 239 239 254 258 264 266 335 57 223 150 99 87 40 142 174 190 167 137 76 39 93 83 83 86 84 86 99 118 138 148 148 148 149 153 152 152 155 154 161 171 169 167 169 167 172 175 183 187 188 188 186 186 185 185 173 158 154 151 148 140 132 120 114 115 124 130 132 134 131 126 122 121 120 120 120 119 119 117 115 113 110 107 107 105 106 106 103 97 88 86
190 220 223 243 249 245 251 243 241 246 252 266 268 53 59 221 89 85 95 152 183 183 186 181 139 105 64 48 53 82 91 103 95 97 116 132 144 146 149 148 151 150 150 154 155 163 172 169 166 167 166 169 175 182 187 189 188 187 187 185 179 164 156 156 154 150 144 137 125 119 122 130 132 135 139 135 130 127 126 125 125 124 124 125 123 121 117 112 107 104 101 101 101 96 90 85 84
197 229 223 238 256 290 278 248 241 243 249 257 265 29 62 94 85 87 155 160 182 177 174 190 142 126 96 62 58 65 84 112 101 103 122 134 144 147 148 146 152 150 150 154 156 171 175 169 166 164 164 168 175 181 185 186 186 186 183 179 169 160 158 158 155 152 149 140 131 128 129 134 134 139 144 141 138 133 132 132 131 130 131 129 126 125 119 112 107 99 92 92 97 93 88 87 88
218 229 209 227 246 252 252 249 249 254 246 236 262 335 85 111 94 188 194 178 180 177 182 191 142 125 115 112 83 62 70 91 109 123 133 142 146 147 148 148 152 149 152 154 159 182 175 166 164 162 163 167 174 180 182 183 182 182 178 172 165 162 160 159 157 155 153 143 138 137 136 138 137 141 144 146 146 141 140 140 139 137 134 132 128 124 118 112 105 92 83 85 93 95 95 94 96
231 240 219 230 239 216 235 248 249 257 244 163 268 304 40 78 81 224 212 194 182 174 179 178 180 146 122 127 95 77 81 83 110 125 136 144 145 148 150 151 151 151 156 155 167 185 170 163 160 159 162 166 173 177 179 182 182 179 174 170 169 168 165 162 159 159 156 149 147 145 144 142 140 141 142 148 152 149 147 145 144 137 133 132 127 122 116 111 103 88 82 85 89 92 95 97 102
225 237 231 240 251 231 234 247 244 247 247 216 239 246 256 237 227 234 222 209 179 182 184 174 196 176 119 109 94 100 95 96 115 127 139 144 146 149 149 152 152 152 157 159 176 183 165 160 157 157 163 166 171 176 180 183 182 178 174 173 174 173 170 164 161 162 159 156 153 152 151 147 144 143 144 147 152 157 156 149 142 135 133 132 127 124 119 116 106 95 90 90 90 91 97 102 108
219 223 241 245 249 249 238 245 241 240 245 252 243 208 216 215 222 224 220 210 174 192 182 163 200 171 125 112 103 114 115 117 125 131 138 145 147 147 148 152 153 153 156 161 180 183 166 158 156 158 162 165 171 175 180 181 180 178 176 177 176 174 173 164 164 166 163 164 160 158 157 154 150 145 147 148 150 157 160 156 144 136 137 134 131 129 126 123 113 103 99 97 98 101 105 110 113
221 211 246 257 238 247 243 247 236 229 220 229 226 202 204 201 223 222 220 212 179 189 156 162 195 144 126 117 108 124 134 132 135 139 141 148 146 145 149 150 152 154 156 159 177 180 166 157 156 158 160 164 168 172 174 172 171 172 173 175 174 173 170 162 165 168 168 171 167 165 161 158 156 150 149 150 151 154 157 158 147 142 142 135 133 132 128 124 116 110 108 108 109 111 113 115 115
235 206 224 247 243 244 246 258 251 236 168 208 201 174 179 199 221 215 212 203 187 186 158 181 178 138 136 118 113 139 146 143 143 146 147 148 146 147 148 149 153 155 158 158 172 177 168 160 156 157 160 162 165 168 166 160 158 161 166 170 171 169 163 159 165 170 173 177 173 170 165 161 160 157 153 152 154 155 155 153 148 146 144 137 136 136 130 124 119 117 117 118 117 118 119 117 116
238 233 222 236 251 252 255 265 260 272 244 215 157 122 183 214 215 211 206 191 189 191 166 178 158 142 133 110 123 146 151 155 153 151 150 148 147 147 146 149 153 158 161 159 168 175 172 165 158 158 158 160 164 164 158 153 152 154 158 161 160 158 155 156 160 167 172 175 174 172 169 164 163 163 157 155 157 159 157 150 149 148 144 140 141 139 133 126 123 123 123 123 122 122 121 119 119
233 247 252 249 248 252 260 262 242 245 235 147 111 110 221 212 213 214 205 187 188 184 153 160 161 140 121 122 139 156 161 162 159 156 152 150 147 147 149 152 156 163 160 158 166 169 171 168 164 163 159 161 165 162 158 153 152 153 153 152 150 149 151 153 153 157 163 168 172 175 174 166 166 168 161 159 160 163 161 153 152 151 147 144 145 142 133 128 126 127 125 125 125 123 122 121 120
237 250 260 260 253 248 237 243 257 246 171 109 123 195 210 199 202 205 210 197 162 133 128 146 174 139 158 177 163 166 167 162 163 159 153 150 149 149 152 154 157 161 157 158 166 167 168 169 169 170 165 167 168 164 161 157 158 157 153 151 149 150 151 151 151 152 157 163 167 174 177 170 171 173 165 162 162 166 167 158 154 154 151 148 147 144 136 131 128 128 127 127 128 125 124 122 121
241 257 251 247 252 246 220 215 247 249 123 97 135 189 205 177 191 203 210 200 129 134 150 151 165 163 181 172 148 160 162 159 163 157 152 152 151 151 152 156 158 163 164 164 170 171 166 166 173 176 174 175 172 168 166 162 163 162 159 157 154 154 155 155 155 154 156 159 162 169 177 178 176 174 171 168 165 168 174 167 159 157 156 153 151 147 141 136 132 132 128 128 130 129 127 126 126
232 250 243 235 241 236 210 187 215 219 100 95 124 183 216 162 187 210 170 166 139 147 150 128 139 61 125 121 131 154 156 157 161 157 157 155 154 154 154 162 168 169 171 173 174 174 169 170 178 180 180 178 173 173 175 171 167 169 168 163 161 158 159 161 160 160 159 158 158 163 170 175 169 165 174 174 172 175 179 175 167 163 161 160 157 153 148 143 139 137 129 126 129 131 131 130 130
218 233 238 230 235 222 215 187 196 70 90 82 108 163 245 163 174 187 172 175 151 151 133 113 113 88 98 115 132 147 148 154 158 160 161 159 161 160 160 171 182 179 179 182 176 176 180 183 186 182 182 180 178 182 185 180 175 177 176 172 170 166 167 168 168 167 164 162 161 161 163 169 172 177 183 180 183 185 184 181 177 173 168 166 165 160 155 151 146 144 136 126 124 129 131 131 132
219 229 234 230 241 212 227 7 35 40 79 65 103 161 266 179 162 171 183 171 156 158 135 126 121 113 117 128 136 140 144 152 155 162 165 165 167 167 170 176 186 187 187 188 182 184 190 194 192 184 184 185 185 188 188 188 186 186 187 185 181 176 176 174 175 175 169 167 165 164 165 172 188 195 197 201 199 194 191 188 186 184 179 173 171 167 163 159 153 150 145 134 130 128 123 123 130
221 232 236 232 249 235 159 333 12 41 37 35 87 180 201 177 162 178 189 175 176 170 141 150 145 138 136 134 138 139 144 151 156 165 167 169 170 174 181 181 186 189 189 188 187 191 195 196 191 188 193 194 193 193 194 194 194 194 195 198 195 190 186 182 183 185 181 176 173 170 170 178 192 198 199 206 208 202 200 196 192 193 190 182 177 174 172 167 160 158 153 148 147 133 120 124 135
217 224 239 238 263 271 185 197 210 104 338 339 87 211 180 170 183 200 196 185 187 171 158 162 150 152 144 137 141 139 145 152 158 167 167 172 172 177 188 189 187 186 188 190 192 197 202 196 190 196 201 202 200 197 199 196 196 198 197 203 203 200 197 192 191 192 190 185 183 181 180 187 194 199 200 204 204 202 205 203 198 197 198 193 185 180 181 176 169 167 161 159 155 137 138 157 159
227 221 242 263 319 273 187 169 189 145 212 230 212 229 166 187 193 206 207 202 192 168 168 153 147 165 147 140 143 140 148 153 161 171 170 175 175 179 188 186 184 187 191 196 201 202 205 198 197 208 206 205 202 199 204 200 200 202 200 204 203 203 203 198 196 192 191 192 192 189 186 194 199 201 202 202 203 199 202 206 202 202 202 200 192 181 183 181 176 176 169 163 158 151 162 170 168
236 222 233 257 264 251 196 159 173 181 215 207 241 239 176 222 191 196 210 212 135 147 155 136 142 171 146 142 144 141 149 156 166 173 172 177 179 184 187 186 191 200 200 201 206 203 203 200 203 210 208 208 206 203 207 205 208 207 208 208 201 204 202 197 201 196 195 199 200 196 193 198 202 204 204 201 202 199 200 197 195 201 205 204 192 175 184 184 178 182 175 168 168 171 175 173 168
229 238 223 232 235 239 222 182 182 195 222 210 247 210 197 220 179 184 185 104 103 120 128 123 143 165 144 143 143 141 151 158 167 170 172 178 181 185 188 188 192 208 207 202 206 208 209 205 206 212 211 213 212 208 208 212 215 212 217 218 209 209 202 195 204 204 203 207 207 205 202 203 202 205 206 200 196 197 198 188 185 192 197 204 191 175 188 190 180 182 181 177 174 178 179 175 171
219 245 241 221 222 233 228 221 209 205 217 208 221 206 196 211 176 174 148 131 145 127 122 122 143 155 142 144 143 144 151 155 162 164 168 177 179 182 183 177 183 205 212 206 209 217 217 209 210 214 211 211 213 213 217 225 227 223 228 228 222 221 215 202 212 221 213 212 216 212 213 211 207 210 210 202 195 194 194 186 186 188 186 193 188 180 190 194 186 182 183 183 176 180 183 178 175
210 230 240 230 218 222 220 218 212 208 209 199 204 197 186 184 182 168 139 140 145 134 132 135 151 157 148 148 144 145 150 152 157 160 165 171 170 173 178 171 183 202 211 213 220 228 224 214 209 206 206 211 221 225 229 240 244 240 239 240 239 239 247 240 239 246 229 220 225 218 223 227 219 219 218 208 197 194 193 189 188 189 185 188 188 184 189 195 193 185 183 183 179 185 186 182 181
205 224 233 231 226 215 208 211 205 204 205 198 200 194 175 172 195 178 137 152 152 143 146 149 157 156 149 145 142 145 149 153 158 161 163 162 160 165 177 178 183 187 203 218 231 243 236 232 223 192 214 223 234 244 237 242 243 237 241 251 255 253 266 264 257 263 258 241 236 223 230 239 232 229 228 216 205 200 195 190 192 192 189 192 193 187 189 195 195 188 186 185 181 184 187 186 184
223 230 235 227 231 221 205 211 202 201 203 196 204 193 164 173 208 193 147 161 164 151 155 160 157 151 148 141 140 143 146 154 159 165 162 153 154 163 177 189 191 177 215 231 241 263 295 296 280 297 281 256 236 241 225 234 240 245 255 257 259 255 254 261 262 267 270 260 252 241 241 244 238 235 235 224 218 212 200 193 194 195 193 198 199 190 190 196 196 191 189 190 185 183 185 187 186
235 231 238 220 221 224 209 210 201 204 198 186 203 198 166 186 201 162 146 161 166 156 160 163 156 151 148 138 140 142 144 152 151 160 158 144 148 160 179 188 183 157 235 254 256 268 295 310 288 268 263 255 241 233 228 236 240 247 258 259 264 266 261 260 258 259 266 266 263 257 252 250 244 240 237 232 229 224 214 207 198 198 201 202 199 192 191 194 200 194 189 194 194 187 185 188 188
231 220 236 221 209 215 207 205 200 204 192 179 199 203 175 189 168 137 143 161 166 162 164 165 161 156 149 141 143 141 141 148 143 145 140 125 128 155 184 180 157 178 233 285 309 269 258 285 287 260 250 250 247 242 240 246 249 248 246 250 261 267 267 264 260 258 258 261 264 264 259 253 249 245 240 239 238 233 235 226 208 205 208 206 201 195 193 194 201 196 186 193 196 191 189 190 190
222 212 226 230 219 205 194 198 198 197 180 178 201 217 187 175 148 144 156 165 172 172 171 171 167 160 151 144 143 141 144 147 139 134 128 113 105 119 144 143 164 204 216 324 347 360 295 280 310 282 262 256 256 261 258 255 258 259 254 254 261 266 269 267 265 264 259 258 264 267 264 258 253 246 244 245 240 239 247 243 224 218 215 212 209 203 197 196 203 200 188 189 194 193 191 192 192
213 213 215 220 234 204 181 190 195 192 176 180 205 226 184 161 146 159 167 173 187 185 174 167 170 168 156 148 147 146 146 144 136 130 121 108 99 98 117 138 162 150 58 3 1 29 47 356 323 306 283 268 264 268 266 260 262 265 263 260 262 263 268 268 263 261 261 259 259 262 266 266 260 245 242 243 241 243 250 254 241 231 224 217 214 209 201 198 204 203 195 189 191 195 194 195 194
205 220 216 205 227 211 172 181 190 194 181 180 211 223 145 142 149 162 171 180 190 193 176 165 174 176 162 154 152 151 146 142 137 126 113 99 99 93 94 147 161 81 33 6 24 45 53 29 344 319 301 286 281 276 265 258 257 258 260 258 259 260 263 266 259 254 259 257 251 254 257 263 265 249 238 237 242 248 248 254 256 243 232 224 215 210 203 198 202 204 202 195 190 196 198 198 196
199 213 220 205 217 206 166 175 187 197 190 183 212 216 117 135 147 153 169 180 186 192 180 165 172 176 165 158 156 154 144 136 128 111 106 98 97 88 72 120 77 64 17 18 33 41 52 33 3 337 316 301 292 277 264 260 253 250 256 256 256 260 261 263 263 261 263 262 257 255 254 260 269 258 245 240 242 248 247 251 261 260 250 237 224 215 206 198 202 202 204 204 198 199 201 202 201
198 201 216 208 208 202 175 176 187 197 194 187 208 199 127 139 137 137 157 170 182 185 171 168 175 176 165 162 161 151 129 117 110 96 98 105 102 96 97 123 98 91 305 38 54 57 103 25 1 340 320 314 304 286 273 273 266 259 263 265 265 265 263 267 273 273 272 271 269 268 269 270 272 262 250 246 243 246 250 251 257 265 271 258 238 231 219 202 207 203 200 209 206 202 202 205 205
202 199 214 212 202 205 184 178 185 193 194 192 205 191 142 145 135 127 134 146 170 164 159 177 177 173 174 172 151 125 112 104 97 91 94 101 109 106 103 102 109 115 44 80 85 44 196 268 339 328 311 310 312 303 289 283 279 279 281 282 280 274 272 275 275 275 274 275 275 276 280 279 273 267 256 249 248 250 251 251 254 259 266 263 250 243 231 211 213 209 201 206 207 205 204 205 207
215 201 211 215 203 208 194 182 181 186 194 194 201 188 145 142 135 126 127 137 161 165 173 190 178 171 174 158 120 107 106 99 92 91 97 97 99 110 112 108 106 87 63 76 76 19 288 284 347 338 314 316 329 325 303 295 293 295 297 295 293 286 287 289 282 278 277 278 277 273 275 277 272 272 266 254 251 252 250 249 251 251 252 256 254 248 237 223 218 215 212 211 210 207 203 203 206
243 211 205 209 204 208 191 167 171 183 199 198 198 185 145 141 136 127 131 133 144 158 172 191 184 170 147 112 104 109 101 93 92 89 94 88 86 102 112 109 95 73 64 72 75 46 357 327 331 325 323 333 339 311 292 300 301 295 293 293 296 295 295 294 286 284 285 283 278 270 270 275 274 271 267 257 251 252 251 248 246 248 249 251 252 248 243 237 226 218 218 218 218 213 206 207 207
243 221 208 207 203 202 170 151 172 187 202 194 189 173 140 148 145 132 133 125 120 123 137 166 171 151 124 105 103 105 94 90 87 79 82 79 77 89 95 89 77 68 63 60 64 50 1 317 303 310 322 333 320 283 272 271 278 279 278 284 292 295 291 287 283 285 288 281 273 274 277 277 276 271 266 260 254 251 251 248 244 247 251 250 252 250 245 242 232 222 219 219 223 219 213 217 216
228 223 213 204 203 202 167 161 182 193 207 189 172 161 142 148 145 135 127 116 114 109 101 107 103 94 96 99 97 95 92 88 82 75 77 77 74 76 81 91 99 97 89 72 65 41 360 345 336 326 319 327 314 298 291 269 268 275 272 273 282 289 289 288 288 290 290 281 274 279 284 284 280 277 272 262 251 246 246 247 244 245 248 249 252 253 249 243 232 222 218 217 221 219 216 224 226
221 227 223 212 209 199 158 163 184 195 210 194 177 178 163 162 158 145 132 121 118 113 103 95 91 87 87 89 86 87 88 84 81 78 76 77 77 78 83 94 98 89 83 72 56 38 30 10 359 355 347 343 328 318 323 314 299 298 291 294 304 306 300 296 295 295 293 288 285 282 283 291 290 282 276 265 252 246 246 246 244 242 246 248 248 251 252 247 237 226 220 213 209 209 210 217 227
215 225 234 232 214 189 165 174 183 191 205 192 189 197 181 181 176 157 153 138 114 105 100 90 84 87 87 84 81 81 82 81 81 80 77 77 78 81 88 97 97 87 81 78 67 55 45 28 11 3 357 352 348 345 346 347 337 325 322 318 319 319 310 302 298 294 288 284 285 283 282 294 296 285 272 262 253 248 248 248 245 243 247 248 244 245 250 250 247 241 233 222 213 211 211 215 228
215 209 226 239 221 196 185 181 183 195 199 187 198 210 181 181 181 167 168 152 124 104 93 86 82 83 82 80 79 79 80 81 81 78 75 73 71 73 79 83 84 81 79 79 75 70 57 46 31 12 3 356 358 2 357 353 341 325 327 327 316 307 300 297 294 289 284 283 281 274 269 277 286 283 270 261 254 248 249 248 245 246 249 248 244 241 246 252 251 245 239 237 229 223 224 227 236
221 186 207 237 231 208 192 181 193 206 197 186 199 214 200 184 182 168 168 160 144 126 102 92 86 84 83 81 78 77 78 79 79 76 72 69 66 66 69 70 72 74 71 69 71 70 61 55 44 30 27 14 3 5 1 353 349 340 335 332 317 300 298 295 291 284 277 282 282 269 265 267 270 273 270 266 259 251 248 244 242 246 248 247 245 242 246 251 250 246 244 243 239 235 234 234 237
227 187 192 226 240 216 193 186 208 209 199 194 198 211 212 186 180 168 170 173 158 136 116 103 94 89 88 87 84 80 78 75 74 74 73 72 68 66 65 64 72 78 72 66 66 68 67 59 48 40 40 31 16 8 5 352 349 350 337 321 309 299 298 294 290 284 274 278 284 275 269 269 263 262 265 267 267 259 251 244 237 238 243 244 243 243 245 247 245 244 245 245 244 243 239 236 237
229 202 186 202 231 225 201 198 214 209 211 208 194 206 217 189 177 175 181 185 167 139 120 109 103 99 92 88 86 81 78 73 70 72 73 72 71 69 64 60 63 68 65 59 59 61 60 50 41 39 43 42 34 19 10 351 342 341 323 309 302 297 296 293 290 284 274 276 283 280 272 272 269 263 265 268 271 265 252 244 237 234 236 237 238 240 241 243 241 241 245 247 247 245 240 237 237
222 198 186 199 213 226 217 215 221 213 216 211 195 203 217 205 172 180 194 187 168 144 127 122 114 107 99 94 88 80 78 74 70 71 70 69 68 64 59 55 52 49 46 45 46 46 42 37 32 28 26 21 12 19 42 290 301 314 308 304 301 298 295 290 289 288 282 274 274 273 268 271 273 265 264 266 266 262 251 244 239 234 234 233 233 235 237 240 241 240 244 244 242 241 240 238 237
211 183 196 204 198 213 219 219 225 222 218 211 199 201 212 217 194 194 197 172 154 143 132 131 120 109 103 97 89 83 80 77 73 70 66 64 61 56 51 48 44 38 35 33 34 34 31 31 28 22 15 3 352 346 322 257 251 253 263 278 286 291 292 288 284 282 278 270 267 265 261 265 269 263 261 262 261 257 250 246 240 233 230 232 231 232 234 238 240 241 242 239 238 238 236 234 233
206 188 201 204 190 199 208 208 213 222 226 213 205 207 210 215 178 167 151 125 125 125 122 122 115 108 104 99 93 88 83 76 71 65 61 57 51 47 44 40 37 32 30 28 26 27 26 26 25 20 11 4 358 352 351 342 311 282 266 267 269 266 270 279 281 276 268 264 265 263 259 261 266 262 259 264 267 260 252 248 245 240 234 231 230 230 232 234 236 241 241 240 239 237 233 230 230
199 194 201 203 193 191 200 206 204 216 229 214 210 212 191 117 79 101 105 108 114 112 110 110 109 107 104 99 93 86 81 75 69 64 59 54 46 44 38 34 31 26 24 23 20 20 22 22 20 17 10 5 2 358 355 352 350 351 336 311 293 274 264 264 273 277 271 267 265 264 262 260 259 257 256 263 267 264 258 250 244 244 242 236 232 229 229 231 234 238 240 241 240 236 232 230 231
194 205 209 207 208 197 197 208 203 205 214 208 214 220 168 125 126 108 109 116 116 111 110 109 107 107 104 99 92 85 80 75 70 64 59 52 45 41 36 30 27 22 19 17 14 14 17 18 14 12 11 5 1 359 355 349 347 351 349 338 324 309 292 277 273 277 277 277 273 269 268 264 258 255 254 257 257 257 259 255 246 242 240 239 236 231 230 231 234 235 236 239 238 234 232 232 233
193 210 215 210 212 203 197 217 225 220 211 202 203 208 73 104 134 130 123 120 117 114 113 113 111 110 106 98 91 85 79 73 69 62 54 47 40 35 31 26 21 18 15 12 11 11 12 13 11 10 9 4 2 359 354 350 347 346 346 341 334 326 317 305 293 280 276 280 281 278 277 272 267 264 262 260 258 259 262 260 253 246 240 240 240 237 233 233 235 235 234 235 234 233 232 233 232
193 208 216 213 211 207 204 214 234 265 230 200 164 110 99 118 134 141 136 130 129 123 118 120 120 116 108 98 91 86 79 72 64 57 49 41 35 30 26 23 19 14 12 11 12 13 12 11 9 8 8 4 1 359 356 350 344 343 340 334 331 327 319 312 305 293 282 279 282 284 285 283 278 271 265 263 263 264 265 262 258 253 246 241 241 241 238 237 237 236 235 235 234 234 233 232 232
199 203 211 215 212 210 210 206 205 219 223 202 170 151 153 166 162 154 154 149 144 135 127 127 124 116 106 97 92 86 79 71 63 57 51 43 35 29 26 25 20 16 12 12 14 15 13 11 12 9 4 3 0 356 356 352 345 343 336 328 326 322 315 309 306 304 299 291 285 286 289 290 286 278 267 262 261 259 260 263 262 258 252 245 241 239 239 240 241 240 240 238 235 235 234 233 235
216 208 200 213 216 206 205 212 206 203 211 207 182 167 177 198 174 162 169 160 145 142 140 135 128 118 109 100 96 87 78 72 65 60 53 45 38 31 31 31 26 21 16 14 15 15 11 10 17 15 360 357 360 356 354 352 347 344 336 331 325 319 316 313 312 311 306 301 296 289 289 289 287 285 275 264 261 257 254 258 262 259 253 247 242 237 235 237 240 242 241 237 233 232 233 234 235
224 218 200 210 222 210 206 213 213 208 211 208 189 178 193 210 169 169 175 159 147 150 148 138 127 118 112 106 101 89 80 75 68 65 57 48 43 38 38 35 29 25 20 18 16 13 10 9 15 17 2 356 355 355 355 351 348 345 339 336 331 325 324 322 319 313 304 303 301 293 292 289 283 285 281 269 265 261 254 255 262 263 256 248 241 239 236 234 238 241 240 238 235 233 233 233 232
214 214 202 206 212 210 212 214 216 219 215 208 201 192 181 29 159 174 170 154 152 153 142 132 123 115 111 107 102 92 84 81 75 72 63 53 48 44 42 37 32 28 23 22 17 11 13 14 12 10 6 359 353 351 356 352 348 346 341 338 334 330 327 324 319 312 306 305 303 295 293 291 285 285 284 275 268 263 255 254 260 262 259 255 246 241 238 234 235 240 239 238 236 233 233 232 229
201 210 210 208 204 204 211 210 213 222 223 216 208 183 114 21 357 177 164 149 146 145 137 129 121 115 110 105 100 95 91 88 82 75 65 57 52 47 45 38 33 28 21 19 18 15 15 17 14 8 4 2 356 354 357 355 349 345 342 337 333 329 326 323 321 318 313 308 302 297 293 292 290 287 284 278 270 263 256 254 255 254 255 257 252 243 238 234 234 237 238 237 235 233 234 232 230